Filter options
Transaction Type
Select the type of transaction: Award, Buy, Sell, Transfer, or Contract Buy.
Transaction Value
Select the min transaction value.
Politician Only
Choose whether to filter for transactions made by politicians only.
19,084 Transactions
Symbol Owner Relationship Date Transaction Cost #Shares Value($) #Shares Total
SRTS Eric Sachetta N/A 08/31/26 Buy 3.48 64,841 225,614 296,877
CVBF Michael J. Maddox N/A 08/31/26 Buy 22.03 10,000 220,299 13,138
SHMD Anette Schmid N/A 08/30/26 Buy 3.16 69,000 218,199 13,762,700
NMAX American Shareholder N/A 08/28/26 Sell 11.04 13,350 147,374 22,749,589
DGICA American Shareholder N/A 08/28/26 Buy 19.07 20,000 381,450 14,253,714
MTCH Philip D Eigenmann CAO 08/28/26 Sell 41.7 15,000 625,499 19,389
SE Chris Zhimin Feng Pres. 08/28/26 Sell 120.45 4,116 495,773 1,212,260
SE Yanjun Wang CCGO/Secy 08/28/26 Sell 118.52 3,000 355,548 1,151,442
NRP Gregory F Wooten EVP Bus Dev 08/28/26 Sell 110.89 2,200 243,954 32,634
GLOB Wanda Weigert CMO 08/28/26 Sell 40.45 6,000 242,718 64,046
GLOB Diego Tartara CTO 08/28/26 Sell 40.45 6,000 242,718 72,320
SE Terry Feng Zhao Div. Pres. 08/28/26 Sell 120.07 2,000 240,140 1,823,708
EW Annette Bruls Div. Off. 08/28/26 Sell 89.98 2,644 237,907 17,984
RGLD Randy Shefman Gen Cou 08/28/26 Sell 262.8 500 131,399 8,082
NRIM Jed W Ballard CFO 08/28/26 Sell 25.91 3,492 90,480 26,835
ALLT Boaz Grossmann R&D 08/28/26 Sell 7.8 4,000 31,201 182,000
PLSE Liane Teplitsky COO 08/28/26 Buy 48.29 2,070 99,965 2,070
BLX Hoorde Annette Marie Van CFO 08/28/26 Buy 55 1,454 79,971 23,132
SHMD Arthur Josef Hermann Schuetz CFO 08/28/26 Buy 3.23 15,200 49,095 29,512
AAON Matthew Shaub Div. GM 08/28/26 Buy 76.42 457 34,924 3,136
BIVI Joseph M Palumbo Chf Med Off. 08/28/26 Buy 2.16 4,843 10,461 6,036
CHYM Adam B Frankel Gen Cou 08/28/26 Award 0 115,474 3,852,213 406,830
VIAV Ilan Daskal CFO 08/28/26 Award 0 102,534 3,746,593 66,422
CHYM Amine Asmerom CAO 08/28/26 Award 0 92,379 3,081,764 300,480
VIAV Gary W Staley Sales 08/28/26 Award 0 53,634 1,959,786 168,993
VIAV Luke M Scrivanich GM 08/28/26 Award 0 48,681 1,778,804 63,509
VIAV Paul Mcnab CMO 08/28/26 Award 0 46,410 1,695,822 36,671
VIAV Kevin Christopher Siebert Gen Cou & Sec 08/28/26 Award 0 37,544 1,371,858 40,739
VIAV Anthony Michael Petrucci COO 08/28/26 Award 0 12,328 450,465 21,671
AMCR Susana Suarez Gonzalez CHRO 08/28/26 Award 0 9,236 429,658 28,388
AMCR Deborah M Rasin Gen Cou 08/28/26 Award 0 7,391 343,839 17,676
AMCR Julie Sorrells Contr. 08/28/26 Award 0 1,816 84,490 10,729
ETOR Eddy Shalev N/A 08/28/26 Sell 31.2 100,000 3,120,100 196,779
MGNI Sarah Patricia Harden N/A 08/28/26 Sell 23.57 48,986 1,154,586 114,751
NBR David J Tudor N/A 08/28/26 Sell 92.3 3,200 295,359 5,264
ARTNA Dian C Taylor N/A 08/28/26 Sell 35.5 2,000 71,000 30,073
FSBW Terri L Degner N/A 08/28/26 Sell 43.25 975 42,168 4,523
KLTR Eyal Manor N/A 08/28/26 Sell 1.58 21,788 34,514 248,972
DOCU James A Beer Chair 08/28/26 Sell 64.02 450 28,809 20,129
SUJA Kevin Schwartz N/A 08/28/26 Buy 9.35 652,248 6,097,149 11,101,014
ADC John Rakolta jr N/A 08/28/26 Buy 73.23 20,136 1,474,599 622,343
SCOR William Paul Livek V.Chair 08/28/26 Buy 5.23 20,000 104,600 217,473
ALLE Steven C Mizell N/A 08/28/26 Buy 158.28 170 26,908 5,899
SNFI Alexandre Zyngier N/A 08/28/26 Buy 1.7 10,648 18,081 511,532
CLCHF David John Losito N/A 08/28/26 Buy 0.77 14,200 10,935 360,911
VTSI Grant Barber N/A 08/28/26 Buy 3.03 3,350 10,136 24,392
SE Gang Ye COO 08/28/26 Sell 118.89 50,000 5,944,570 21,275,197
MATX Matthew J Cox Chair & CEO 08/28/26 Sell 223.54 10,000 2,235,385 229,296
AAT Ernest S Rady Chair 08/28/26 Buy 22.54 100,000 2,254,001 14,221,764
BRPSF Viral Patel CEO 08/28/26 Buy 39.15 51,084 2,000,000 151,274
CTEV Travis Dalton Chair & CEO 08/28/26 Buy 38.71 6,450 249,664 550,675
UAMY Gary C Evans Chair & CEO 08/28/26 Buy 4.92 20,000 98,400 2,590,028
ORBS Kevin J O'donnell Chair & CEO 08/28/26 Buy 0.81 50,000 40,384 1,296,485
VIAV Oleg Khaykin CEO 08/28/26 Award 0 342,784 12,525,327 1,384,698
AMCR Peter Konieczny CEO 08/28/26 Award 0 9,753 453,719 148,762
FLYW American Shareholder N/A 08/27/26 Sell 18.93 120,021 2,272,273 13,730,706
AFL American Shareholder N/A 08/27/26 Sell 116.67 12,700 1,481,720 50,739,690
ECAT American Shareholder N/A 08/27/26 Sell 15.52 92,174 1,430,540 13,896,984
CCAP American Shareholder N/A 08/27/26 Sell 10.6 59,286 628,592 4,072,564
GLOO American Shareholder N/A 08/27/26 Sell 3.33 8,521 28,364 4,114,000
SSM American Shareholder N/A 08/27/26 Sell 2.75 4,000 11,016 153,326
RSG American Shareholder N/A 08/27/26 Buy 220.52 560,100 123,511,796 113,935,127
NYC Nicholas S Schorsch N/A 08/27/26 Buy 6.75 10,000 67,450 1,991,412
ECF American Shareholder N/A 08/27/26 Buy 12.49 3,900 48,712 1,615,462
GRX American Shareholder N/A 08/27/26 Buy 10.05 4,340 43,618 2,155,133
FGL American Shareholder N/A 08/27/26 Buy 0.17 93,151 15,929 355,503
RKLB Frank Klein COO 08/27/26 Sell 66.61 35,558 2,368,354 925,737
GSL Anastasios Psaropoulos CFO 08/27/26 Sell 45.02 50,000 2,251,240 450,160
BRZE Jonathan Hyman CTO 08/27/26 Sell 32.47 42,000 1,363,588 1,743,219
FENC Robert Christopher Andrade CFO 08/27/26 Sell 11.78 106,844 1,258,622 217,675
AA Tammi A Jones CHRO 08/27/26 Sell 50.6 15,628 790,733 51,846
CW John C Watts CGO 08/27/26 Sell 619.46 1,035 641,142 2,736
ATR Gael Touya Div. Pres. 08/27/26 Sell 133.76 3,740 500,276 29,102
GWRE David Franklin Peterson PAO 08/27/26 Sell 200 2,500 500,000 9,787
XMTR Vaidyanathan Raghavan CTO 08/27/26 Sell 96.77 5,000 483,825 135,777
GIL Maria Andrea Pirie Woodbridge N/A 08/27/26 Sell 53.84 8,000 430,682 2,243
RKLB Arjun Kampani Gen Cou 08/27/26 Sell 66.65 6,034 402,186 250,917
INTU Lauren D Hotz CAO 08/27/26 Sell 346.54 907 314,289 1,628
AEIS Elizabeth Karpinski Vonne Gen Cou 08/27/26 Sell 290.05 907 263,076 9,805
DXCM Sadie Stern EVP, People Off 08/27/26 Sell 88.37 2,565 226,669 126,043
RDWR Gabi Malka COO 08/27/26 Sell 30 6,500 195,000 47,922
BCC Jill Twedt Gen Cou 08/27/26 Sell 79.4 1,250 99,250 25,295
HBB Sarah M Cunningham CFO 08/27/26 Sell 32.5 3,000 97,499 39,430
U Alex Blum COO 08/27/26 Sell 44.81 1,964 88,006 705,411
NDSN Jennifer L Mcdonough Gen Cou & Sec 08/27/26 Sell 336 260 87,360 6,346
EXOD Matias Olivera CTO 08/27/26 Sell 8.42 8,505 71,640 320,253
FBIZ Jodi A Chandler HR 08/27/26 Sell 70.19 675 47,382 22,550
BL Michelle D Stalick CAO 08/27/26 Sell 33.65 780 26,247 34,712
CVSA Manju Gangadharan CAO 08/27/26 Sell 137.18 188 25,790 5,083
GFS Samak L Azar CLO 08/27/26 Sell 46.75 335 15,662 10,469
FNKO Yves Lependeven Act. CFO 08/27/26 Sell 7 2,167 15,173 42,769
MTDR Christopher P Calvert CFO 08/27/26 Buy 56.64 2,500 141,600 129,624
INDV Woodrow D Anderson CAO 08/27/26 Buy 35.69 1,500 53,534 27,638
LIEN Bernardino Colonna Pres. 08/27/26 Buy 10.17 1,600 16,270 4,030
JUSH Louis (Jonathan) Barack Pre./CRO 08/27/26 Buy 0.5 30,000 15,001 2,913,773
AVT Kenneth A Jacobson CFO 08/27/26 Award 0 6,388 584,598 133,366
NAKA Teresa S Gendron CFO & Treas 08/27/26 Award 0 70,821 547,446 136,437
AVT Michael Ryan Mccoy Gen Cou 08/27/26 Award 0 5,537 506,719 102,431
JKHY Craig Keith Morgan CLO & Co Sec 08/27/26 Award 0 2,849 483,305 11,862
AVT Ken E Arnold SVP & CPO 08/27/26 Award 0 5,111 467,733 85,923